This demonstration page uses our WeatherBlox Daily Observations layout. Learn more.

Left ArrowRight Arrow

Hourly Observations for June 19, 2015

Temp ( °F °C ) Dew Point ( °F °C ) Humidity (%) Winds ( mph kmh ) Pressure ( in mb ) Visibility ( mi km ) Precip ( " mm )
12:51 am 00:51 Clear 82 27.8 31 -0.6 16 16 NW 9 15 29.70 1006 10 16 0.00 0.00
1:51 am 01:51 Clear 79 26.1 31 -0.6 17 17 NW 9 15 29.70 1006 10 16 0.00 0.00
2:51 am 02:51 Clear 79 26.1 32 0 18 18 WNW 8 13 29.70 1006 10 16 0.00 0.00
3:51 am 03:51 Clear 76 24.4 32 0 20 20 NNW 3 6 29.72 1006 10 16 0.00 0.00
4:51 am 04:51 Clear 77 25 32 0 19 19 SSE 8 13 29.75 1008 10 16 0.00 0.00
5:51 am 05:51 Sunny 74 23.3 33 0.6 22 22 SE 9 15 29.79 1009 10 16 0.00 0.00
6:51 am 06:51 Sunny 83 28.3 35 1.7 18 18 E 7 11 29.79 1009 10 16 0.00 0.00
7:51 am 07:51 Sunny 91 32.8 36 2.2 14 14 E 10 17 29.78 1009 10 16 0.00 0.00
8:51 am 08:51 Sunny 94 34.4 42 5.6 17 17 E 13 20 29.57 1001 10 16 0.00 0.00
9:51 am 09:51 Sunny 97 36.1 42 5.6 15 15 E 8 13 29.77 1008 10 16 0.00 0.00
10:51 am 10:51 Sunny 99 37.2 41 5 14 14 VRB 6 9 29.76 1008 10 16 0.00 0.00
11:51 am 11:51 Sunny 102 38.9 41 5 12 12 Calm 29.74 1007 10 16 0.00 0.00
12:51 pm 12:51 Sunny 104 40 38 3.3 10 10 ESE 7 11 29.72 1006 10 16 0.00 0.00
1:51 pm 13:51 Sunny 105 40.6 36 2.2 9 9 Calm 29.70 1006 10 16 0.00 0.00
2:51 pm 14:51 Sunny 109 42.8 33 0.6 7 7 W 13 20 30.09 1019 10 16 0.00 0.00
3:51 pm 15:51 Sunny 106 41.1 32 0 8 8 WSW 8 13 29.63 1004 10 16 0.00 0.00
4:51 pm 16:51 Sunny 108 42.2 30 -1.1 7 7 WNW 17 28 29.61 1003 10 16 0.00 0.00
5:51 pm 17:51 Sunny 106 41.1 29 -1.7 7 7 NW 13 20 29.61 1003 10 16 0.00 0.00
6:51 pm 18:51 Sunny 101 38.3 30 -1.1 8 8 NW 14 22 29.62 1003 10 16 0.00 0.00
7:51 pm 19:51 Clear 75 23.9 72 22.2 90 90 NNW 10 17 29.84 1011 10 16 0.01 0.25
8:51 pm 20:51 Clear 94 34.4 30 -1.1 10 10 NW 10 17 29.66 1004 10 16 0.00 0.00
9:51 pm 21:51 Clear 89 31.7 33 0.6 14 14 WNW 10 17 29.68 1005 10 16 0.00 0.00
10:51 pm 22:51 Clear 87 30.6 30 -1.1 13 13 NW 12 19 29.69 1005 10 16 0.00 0.00
11:51 pm 23:51 Clear 84 28.9 28 -2.2 13 13 NE 6 9 29.70 1006 10 16 0.00 0.00

Powered by AerisWeather